Location: Nora Junction
(43.1400°N, 93.0163°W)
Time: 22:43:05
(UTC+00:00)

Cosmos 1484 Rocket - Visible Passes

Search period start: 15 February 2026 00:00
Search period end: 25 February 2026 00:00
Orbit: 439 x 466 km, 97.6° (Epoch: 15 February)

Date Brightness Start Highest point End Pass type
(mag) Time Alt. Az. Time Alt. Az. Time Alt. Az.
15 Feb 6.3 11:05:40 10° E 11:06:14 10° E 11:06:47 10° E visible
15 Feb 2.7 12:35:53 10° N 12:39:16 48° WNW 12:42:38 10° SSW visible
16 Feb 3.3 12:01:41 10° NNE 12:05:08 56° E 12:08:33 10° S visible
17 Feb 5.7 00:07:20 10° SW 00:09:58 21° W 00:12:37 10° NW visible
17 Feb 5.4 11:28:09 10° NE 11:30:48 20° E 11:33:26 10° SE visible
18 Feb 2.4 12:26:00 10° N 12:29:28 67° WNW 12:32:55 10° SSW visible
19 Feb 6.5 00:33:42 10° WSW 00:34:29 11° W 00:35:15 10° WNW visible
19 Feb 4.0 11:51:54 10° NNE 11:55:13 40° E 11:58:30 10° S visible
20 Feb 5.9 11:18:41 10° NE 11:20:47 15° E 11:22:52 10° SE visible
21 Feb 2.5 12:15:59 10° NNE 12:19:29 86° ESE 12:22:57 10° SSW visible
22 Feb 6.0 00:22:23 10° SW 00:24:21 14° W 00:26:19 10° WNW visible
22 Feb 4.7 11:42:02 10° NE 11:45:08 29° E 11:48:11 10° SSE visible
23 Feb 6.2 11:09:32 10° ENE 11:10:34 11° E 11:11:37 10° ESE visible
24 Feb 3.1 12:05:50 10° NNE 12:09:18 61° E 12:12:43 10° S visible
